Hourly Data Report for July 01, 2021

SWAN RIVER RCS
MANITOBA
Current Station Operator: ECCC - MSC

52°06'53.900" N
101°13'58.500" W
334.80 m
504K80K
71443
WEQ

Download Data

Hourly Data (July 2021)
Hourly Data Report for July 1, 2021
TIME
LST
Temp Definition
°C
Dew Point Definition
°C
Rel Hum Definition
%
Precip. Amount Definition
mm

Wind Dir Definition
10's deg

Wind Spd Definition
km/h
Visibility Definition
km
Stn Press Definition
kPa
Hmdx Definition


Wind Chill Definition


Weather Definition


00:00 18.8 16.7 87 0.0 2 3   97.96     LegendNANA
01:00 17.0 15.6 91 0.0 35 5   97.98     LegendNANA
02:00 17.1 15.9 93 0.0 36 4   97.96     LegendNANA
03:00 16.8 15.1 89 0.0 30 3   97.97     LegendNANA
04:00 16.5 15.5 94 0.0 34 3   97.99     LegendNANA
05:00 15.8 14.7 94 0.0 12 2   98.00     LegendNANA
06:00 17.1 15.3 89 0.0 20 4   98.00     LegendNANA
07:00 20.8 16.1 74 0.0 20 2   98.00 25   LegendNANA
08:00 24.0 12.9 50 0.0 23 4   98.01 27   LegendNANA
09:00 25.3 14.2 50 0.0 21 9   97.99 29   LegendNANA
10:00 27.6 15.1 46 0.0 20 8   97.99 32   LegendNANA
11:00 28.8 15.2 44 0.0 23 11   97.98 33   LegendNANA
12:00 29.7 15.6 43 0.0 22 9   97.98 34   LegendNANA
13:00 30.6 15.4 40 0.0 22 8   97.92 35   LegendNANA
14:00 32.0 15.7 37 0.0 21 13   97.88 36   LegendNANA
15:00 32.7 15.2 35 0.0 24 10   97.83 37   LegendNANA
16:00 32.4 13.7 32 0.0 23 9   97.77 36   LegendNANA
17:00 32.6 13.0 30 0.0 26 8   97.73 35   LegendNANA
18:00 32.3 13.3 32 0.0 22 8   97.66 35   LegendNANA
19:00 31.3 13.9 35 0.0 22 11   97.66 35   LegendNANA
20:00 29.5 16.6 46 0.0 19 6   97.63 35   LegendNANA
21:00 25.9 17.4 59 0.0 20 10   97.64 31   LegendNANA
22:00 22.6 16.7 69 0.0 20 9   97.64 28   LegendNANA
23:00 21.7 15.9 70 0.0 20 9   97.68 26   LegendNANA

Notes on Data Quality.

Legend

  • E = Estimated
  • M = Missing
  • NA = Not Available*
  • [empty] = Indicates an unobserved value
Date modified: